Theta_e
342 344 344 345 345 348 349 350 350 352 355 357 359 359 360 358 360 359 361 363 361 360 360 359 357 357 357 355 354 356 360 361 360 360 359 358 368 371 370 370 368 366 366 366 367 367 367 367 366 364 362 361 359 357 358 353 358 360 362 357 350 351 347 358 351 349 348 345 361 350 349 350 348 349 345 343 340 353 340 347 343 338 339 342 351
342 342 343 344 345 347 347 349 350 350 353 355 356 358 360 359 359 360 360 363 361 360 361 360 360 356 356 355 354 354 358 359 359 361 361 361 369 368 370 369 367 367 368 368 368 365 363 363 363 361 361 359 359 358 353 352 352 349 356 358 352 348 350 346 346 343 344 341 341 348 347 348 350 348 341 341 336 336 335 339 339 334 335 338 340
335 340 341 341 344 345 347 348 348 349 350 351 356 359 361 360 361 363 361 361 362 361 362 361 361 361 358 357 356 355 359 360 359 360 363 360 363 369 369 368 369 367 368 368 365 363 359 362 359 361 359 358 357 354 357 354 358 353 353 350 349 352 346 354 351 351 342 343 346 338 337 337 347 345 343 343 329 328 337 331 333 333 336 340 340
335 336 338 340 342 345 347 348 349 349 351 351 354 357 360 361 362 363 363 362 362 363 363 364 364 364 365 364 361 359 358 360 364 364 363 360 359 366 366 368 365 362 362 362 364 363 363 362 360 361 362 356 363 358 355 358 356 355 353 351 356 341 339 348 351 350 349 344 337 338 337 334 334 335 340 344 335 331 330 330 335 336 334 344 345
336 336 339 340 341 342 347 348 348 348 349 350 352 355 357 360 362 363 364 363 363 363 364 365 365 364 365 366 366 364 364 361 358 357 359 361 358 365 366 364 361 363 363 364 364 363 362 362 359 359 359 358 356 356 356 350 351 349 351 355 348 345 340 345 349 349 348 351 343 338 335 334 331 334 335 343 337 337 330 328 337 335 334 345 349
340 338 338 339 341 344 348 349 348 348 349 351 352 355 359 361 363 363 364 365 364 364 364 366 364 362 362 359 357 359 358 359 356 356 355 357 354 358 366 364 363 363 365 364 362 362 361 361 360 357 358 358 360 355 357 361 351 351 348 349 349 354 348 342 344 348 348 347 349 354 339 334 335 336 335 335 345 341 334 337 335 332 334 341 354
339 339 339 339 342 343 346 349 348 347 349 352 354 356 361 363 363 363 363 365 366 365 365 365 365 364 363 360 358 358 357 359 364 361 362 362 362 360 361 362 364 362 360 362 361 361 361 362 360 358 356 357 358 356 353 349 344 351 349 352 352 351 350 344 342 345 346 351 344 346 345 345 340 336 331 336 332 342 341 330 335 331 331 334 334
337 340 341 342 343 343 344 349 349 348 350 352 353 357 361 364 364 363 364 365 366 367 365 366 364 364 363 361 361 360 357 360 363 365 366 365 361 359 359 360 363 363 360 362 361 361 361 360 361 360 357 353 352 353 353 350 356 353 352 350 353 352 354 350 343 345 348 345 348 349 340 338 341 341 336 333 333 331 336 335 328 327 331 328 330
337 338 340 340 344 344 346 349 350 351 351 352 354 357 361 365 365 365 365 366 367 369 367 366 367 366 364 363 363 363 362 363 363 364 364 362 362 364 363 361 363 364 363 360 362 360 361 360 360 360 357 358 355 351 348 346 351 352 351 352 351 351 357 354 352 349 341 342 341 346 344 347 344 337 339 345 341 329 325 326 336 336 328 332 337
338 339 341 342 344 345 346 348 350 351 353 357 356 358 361 364 365 366 365 366 367 369 368 368 368 367 365 365 364 362 362 363 361 362 363 365 361 364 364 363 361 362 363 361 362 361 359 360 358 356 355 350 349 349 348 353 350 351 352 348 351 351 358 353 349 352 352 346 349 341 347 343 341 338 339 338 337 338 331 327 327 328 335 337 341
337 339 341 344 345 347 348 347 351 353 355 357 356 358 360 362 365 365 366 367 368 368 368 368 368 368 366 366 364 362 363 363 361 361 361 362 360 362 363 363 361 360 358 361 360 359 359 359 355 354 354 356 350 354 350 350 345 349 347 352 350 350 347 351 347 349 355 349 349 352 347 340 343 342 338 335 337 333 334 328 327 328 329 332 347
337 338 339 343 346 347 349 348 350 354 355 356 355 359 359 362 364 365 366 367 367 368 368 367 367 367 367 366 365 364 363 360 360 360 359 360 359 361 363 363 362 360 361 358 357 354 360 359 357 355 355 354 353 353 358 352 347 345 352 351 350 351 351 354 350 349 345 348 345 341 340 338 343 346 343 342 340 340 336 334 331 334 335 337 340
337 342 343 344 344 345 347 350 352 354 354 356 355 355 359 362 363 364 365 367 367 368 367 367 367 367 366 365 365 365 365 364 362 360 361 361 361 362 361 359 360 359 361 356 356 357 359 359 357 360 356 354 352 353 355 353 355 354 351 347 350 348 350 348 348 348 343 346 345 343 340 342 343 352 347 339 340 343 342 336 337 332 330 331 341
337 339 339 341 346 346 349 351 352 353 354 356 357 357 359 361 363 363 365 367 367 367 366 367 368 368 367 366 366 366 366 365 364 361 361 363 363 361 358 358 359 357 356 357 354 355 357 357 358 357 357 356 355 354 352 357 353 363 349 348 346 350 350 349 348 346 350 346 347 342 337 340 340 340 342 345 341 340 337 335 335 336 334 330 335
338 340 339 341 346 345 345 349 353 353 353 353 355 358 360 360 363 364 365 367 367 366 367 367 367 369 367 366 366 367 366 366 365 363 363 363 361 361 361 359 359 358 358 359 359 358 357 355 355 354 355 354 354 352 353 353 355 356 362 348 351 347 349 351 347 345 343 343 344 347 344 343 345 356 346 341 347 341 339 338 336 330 330 331 330
334 336 339 342 346 350 349 351 354 353 354 353 355 358 359 360 364 365 366 367 367 367 367 367 368 368 368 366 366 367 367 367 367 365 366 364 363 362 362 363 361 361 362 358 359 359 357 355 354 352 355 352 352 353 352 350 351 349 351 350 349 347 346 346 349 348 342 348 344 347 350 340 343 343 342 343 349 342 341 341 342 335 329 325 331
334 336 340 343 344 347 347 350 350 352 352 352 355 358 360 360 363 365 366 367 367 366 367 368 368 367 367 367 366 366 367 365 364 364 360 363 365 363 362 362 362 362 359 358 356 358 357 354 352 350 353 352 351 352 350 350 348 347 346 349 347 344 348 347 348 347 346 339 340 340 342 342 354 352 347 347 349 351 349 349 344 340 338 329 327
338 341 346 345 344 347 347 348 349 351 351 353 356 358 360 361 363 364 366 366 366 366 366 367 368 367 366 367 367 367 365 364 364 364 362 363 364 363 363 360 360 359 358 356 355 355 357 356 353 352 351 350 349 348 348 348 346 346 346 347 347 348 353 348 345 346 345 346 345 348 346 351 349 345 343 341 352 343 345 345 344 344 341 333 331
336 336 344 346 344 345 349 348 349 351 354 355 357 357 359 361 361 362 364 365 366 364 364 367 368 367 366 366 367 367 366 364 364 365 364 362 359 362 359 360 360 360 359 359 357 353 354 353 354 352 351 350 350 348 348 347 348 345 346 345 346 347 346 349 347 345 345 346 346 347 349 345 347 344 347 347 346 347 345 344 343 343 341 339 335
334 334 337 343 344 343 344 348 349 351 354 354 354 354 354 357 360 361 363 367 367 365 366 366 367 367 366 367 368 368 367 366 364 365 363 362 361 360 359 358 359 359 359 360 356 353 352 351 351 348 347 347 348 346 347 347 348 347 345 343 343 346 345 344 345 343 343 343 342 341 343 342 347 348 347 346 349 348 345 343 342 342 343 343 341
333 334 335 337 340 341 343 348 350 351 353 353 353 352 352 354 357 359 362 364 365 365 365 366 366 366 367 367 367 368 367 366 365 365 364 363 362 361 360 358 360 358 358 358 355 354 352 351 349 348 346 346 347 346 346 347 346 346 347 345 344 344 342 342 344 343 341 343 344 342 343 345 346 344 343 343 345 348 345 343 341 340 339 340 338
335 333 335 336 339 342 344 346 350 350 351 352 353 352 352 352 355 359 361 363 363 364 365 365 366 367 366 367 366 367 367 366 364 364 363 363 362 362 362 360 358 359 359 356 355 354 353 351 349 347 347 347 348 348 346 346 345 345 345 344 344 345 342 341 340 339 342 340 341 342 343 344 346 344 343 342 342 340 338 337 345 341 340 339 342
334 335 333 333 339 344 346 345 346 349 351 352 353 352 351 352 356 358 360 362 363 364 364 367 367 367 366 367 367 368 367 366 363 362 359 360 362 363 363 360 358 358 359 357 355 353 353 352 348 347 347 348 348 347 347 346 345 345 343 343 343 344 343 341 340 340 340 341 340 341 340 342 343 341 341 341 341 341 343 345 343 342 341 342 343
335 335 334 340 343 346 346 344 343 345 350 353 353 353 352 354 355 356 358 361 362 362 363 367 367 366 366 367 367 368 365 363 361 360 358 359 359 361 362 361 358 357 358 358 357 354 353 351 347 346 347 348 348 347 346 346 345 345 344 343 342 342 342 341 340 340 340 340 339 339 339 340 341 341 342 342 341 342 343 343 342 341 341 340 342
337 339 339 340 342 343 346 347 347 347 350 355 356 355 354 354 354 356 358 361 360 360 361 364 364 363 363 366 365 366 366 364 363 361 360 359 360 361 361 359 358 355 358 358 356 354 353 350 346 346 346 347 347 347 347 345 346 345 344 343 343 343 343 341 341 341 343 340 339 338 340 341 342 341 343 341 341 340 339 339 339 341 342 341 340
341 342 340 340 341 346 348 350 354 354 353 356 357 356 355 355 353 355 355 356 357 355 358 362 364 363 364 364 363 364 365 364 363 360 360 359 360 361 361 360 359 357 359 357 355 352 351 350 347 347 346 347 347 347 347 345 344 344 344 343 344 345 343 343 342 342 342 342 341 340 341 342 341 340 339 340 341 340 341 340 339 339 340 341 341
343 343 341 347 350 349 352 357 359 354 353 355 356 355 354 355 354 355 354 353 355 354 355 359 363 363 364 363 363 364 365 365 364 363 361 360 359 359 360 360 359 358 358 356 354 352 350 350 348 347 347 347 348 347 347 346 346 345 344 343 343 343 343 342 342 341 340 341 341 341 342 342 341 341 340 340 341 341 339 338 340 340 343 343 341
352 350 354 353 358 351 353 357 359 355 353 354 355 354 355 355 352 351 351 351 352 353 353 357 362 363 364 364 366 365 364 366 366 366 363 361 360 358 359 362 360 359 357 355 354 352 350 349 347 347 348 348 347 347 347 347 347 346 344 343 343 342 341 341 341 341 339 338 339 339 338 340 340 341 340 341 341 339 339 337 340 345 343 338 336
348 351 355 354 361 365 357 357 359 357 353 352 352 353 355 354 351 349 348 350 352 353 353 355 361 363 364 364 366 366 365 366 366 367 364 362 361 360 359 362 362 360 357 355 355 353 349 349 348 347 349 347 345 345 346 346 346 344 343 342 343 342 341 340 340 339 339 339 339 339 338 338 341 347 346 344 343 342 338 338 342 343 341 339 336
346 352 354 360 362 367 367 364 364 359 356 352 352 354 353 351 348 348 348 349 352 352 353 354 360 364 366 366 368 367 366 367 366 366 365 363 361 360 359 361 361 360 359 357 356 353 350 348 348 348 348 346 345 346 340 333 338 343 341 341 342 342 341 340 339 339 338 339 339 338 339 344 347 347 346 346 342 342 341 342 345 342 340 337 335
342 352 351 356 357 364 366 366 364 361 359 354 354 355 356 350 347 345 348 350 354 354 354 354 360 365 367 368 369 369 368 367 367 366 365 364 362 361 360 361 361 360 358 357 357 352 349 349 350 347 343 344 346 345 330 328 331 334 340 341 341 342 343 342 340 339 338 339 339 340 340 343 348 348 347 347 344 341 341 340 337 336 338 337 334
336 350 350 353 355 358 361 362 361 362 362 358 358 358 356 350 347 345 345 348 354 355 354 355 361 367 369 369 369 370 370 369 369 367 366 365 364 363 362 361 360 360 359 358 356 352 350 351 350 345 340 343 346 334 325 326 328 329 335 342 342 342 343 342 340 339 340 340 339 339 339 344 343 343 343 343 343 341 339 337 335 334 333 333 333
343 351 350 350 350 355 359 358 357 358 360 360 361 359 358 355 352 349 349 347 351 355 358 358 364 368 370 370 371 372 371 371 370 368 367 366 366 365 364 363 362 362 361 358 356 353 351 352 350 347 343 346 347 328 324 324 326 326 329 337 341 342 341 340 340 341 340 340 341 340 342 345 343 347 346 345 346 344 339 334 333 334 333 331 327
336 350 352 351 353 353 358 358 359 359 357 358 360 359 360 359 358 358 353 351 351 360 361 360 366 369 371 372 373 372 371 371 371 370 368 367 366 364 363 363 361 360 359 356 354 353 353 352 350 348 347 345 342 325 323 321 323 323 326 330 344 343 341 340 341 341 340 339 341 346 342 342 344 342 343 343 343 343 342 342 340 338 338 337 331
332 349 350 355 356 359 362 362 358 357 359 359 360 360 361 360 360 359 360 358 357 364 362 363 367 371 373 373 373 372 371 371 370 369 367 366 365 364 363 360 358 356 355 354 352 351 351 351 348 348 347 343 340 321 320 319 320 320 323 327 339 342 343 342 341 340 338 338 346 345 345 345 344 343 343 343 342 341 341 341 341 339 338 337 335
332 333 344 359 358 359 359 362 360 362 358 357 357 357 356 355 357 358 359 361 365 368 365 366 369 372 373 373 371 370 370 369 367 367 365 364 364 364 361 361 359 357 356 355 354 351 350 349 348 346 343 340 336 319 319 318 318 319 323 333 337 339 339 339 340 342 341 345 345 345 343 345 345 343 342 337 341 342 340 339 338 338 336 336 335
332 333 346 363 363 363 361 367 364 358 357 355 357 357 357 357 355 356 360 361 367 368 366 368 371 373 372 371 371 369 367 366 365 363 362 361 361 361 361 361 357 355 354 354 353 351 351 347 346 345 342 339 335 321 317 316 317 318 321 333 334 336 337 336 336 340 341 343 346 346 344 344 343 343 337 326 332 342 338 337 337 336 336 334 332
328 331 344 366 364 365 366 365 363 360 358 359 359 359 360 359 356 358 359 360 369 367 368 370 372 373 371 371 371 369 367 365 363 361 359 359 358 359 359 360 355 351 349 351 351 351 350 348 345 342 340 338 336 325 315 314 315 316 323 332 333 335 335 335 336 339 340 343 345 348 345 342 342 342 329 323 326 335 335 335 335 334 332 331 331
326 327 328 362 362 361 364 366 364 359 359 361 361 360 359 358 358 356 357 359 367 368 370 371 371 372 372 370 369 369 367 364 362 360 358 356 355 356 356 357 354 353 351 352 351 349 348 347 343 341 336 337 338 331 313 314 314 314 323 334 336 335 333 334 336 337 340 344 341 342 344 342 339 338 323 321 322 331 335 334 334 332 330 328 329
326 326 327 346 363 362 366 363 361 361 360 363 362 361 359 358 359 357 357 360 365 370 372 372 371 372 371 369 368 367 366 364 362 360 359 358 356 354 354 352 352 352 351 350 350 348 346 344 343 342 342 339 338 342 323 313 312 312 318 335 337 335 334 335 336 338 335 335 338 337 333 328 327 324 316 315 317 321 333 335 334 330 327 326 327
325 324 333 350 362 362 363 360 362 363 360 361 360 360 358 359 360 359 358 360 367 373 373 372 372 370 369 368 368 367 366 365 362 360 357 356 354 353 352 352 349 349 351 353 349 347 344 344 341 342 341 339 339 342 326 311 310 311 314 323 338 338 338 338 336 332 333 333 332 335 337 326 320 317 311 309 310 313 320 331 332 329 328 321 318
350 364 353 361 358 362 361 359 366 364 361 362 362 361 360 362 362 362 363 365 371 373 373 373 371 369 367 366 365 366 366 364 363 361 358 356 355 353 352 350 348 350 350 347 346 345 343 342 344 347 344 345 342 338 331 313 312 310 312 316 336 342 337 335 333 334 332 331 334 334 331 328 317 313 309 306 305 308 311 323 322 307 306 312 323
358 361 357 356 358 360 356 357 360 359 359 363 364 363 362 362 363 366 367 370 372 373 372 371 369 366 365 364 365 364 363 363 362 360 357 354 353 351 351 351 350 346 345 343 343 342 341 342 343 346 343 343 343 341 325 323 312 310 310 312 320 330 325 336 332 332 334 335 332 331 334 318 310 307 304 303 304 306 311 317 304 306 307 309 319
350 353 354 353 358 357 353 355 355 360 363 364 367 361 362 363 365 369 370 371 372 371 370 367 364 365 364 362 363 363 363 362 360 359 356 353 351 352 352 350 345 344 342 342 342 342 340 337 337 341 340 341 346 343 325 320 318 310 309 310 315 320 322 335 337 335 333 335 336 337 327 307 303 299 300 303 305 308 315 301 305 308 310 316 320
350 350 358 355 355 356 353 359 366 367 369 368 366 363 363 365 368 370 370 370 369 367 365 362 362 362 362 362 362 361 361 359 358 357 353 351 351 350 347 346 343 342 342 340 340 339 338 338 339 339 341 343 340 335 329 321 317 313 313 312 313 316 317 315 330 336 338 335 318 308 302 302 301 300 303 305 305 306 305 305 306 308 317 320 322
340 350 354 354 352 356 360 360 367 369 370 369 369 368 364 366 369 368 369 368 366 363 361 360 360 360 359 358 358 357 358 356 355 355 352 351 349 346 344 343 343 341 341 340 340 338 338 338 339 339 341 339 337 334 329 325 320 318 318 314 314 315 320 321 321 316 309 307 306 305 304 304 305 306 308 311 317 316 308 309 310 312 319 320 321
346 356 357 354 349 351 354 359 361 365 365 365 365 365 365 367 367 366 365 365 362 361 358 358 357 356 357 357 355 353 353 352 353 352 350 350 347 345 343 342 342 340 340 339 339 339 339 338 339 341 340 338 336 332 329 328 328 327 327 321 322 321 318 321 324 320 316 314 311 313 312 311 312 311 316 321 323 320 314 313 317 317 319 321 322
358 358 356 358 357 357 358 360 361 363 363 361 361 361 362 362 363 363 362 361 358 357 356 355 354 353 352 353 352 352 350 348 348 347 347 347 345 344 342 342 341 341 339 339 339 339 339 339 338 339 338 337 335 332 329 328 330 330 330 328 328 328 327 329 327 323 323 320 319 316 314 320 320 318 319 321 322 323 323 321 321 321 321 322 324
348 349 348 347 351 352 352 352 354 357 356 356 355 354 355 358 359 359 359 356 353 351 353 352 351 350 349 350 349 348 346 337 329 321 313 310 318 342 341 329 322 322 328 341 341 342 341 339 339 339 337 335 335 332 332 322 332 321 329 330 329 329 328 329 326 318 325 324 322 320 320 320 320 320 320 320 321 321 322 323 324 324 323 324 324
351 350 348 346 347 347 346 345 347 350 351 351 352 353 354 354 356 356 356 354 353 351 349 348 348 347 346 345 345 344 342 336 329 324 321 317 309 299 310 331 324 313 304 299 311 338 339 340 339 341 341 337 335 337 317 311 308 308 310 313 315 314 314 322 317 314 324 323 322 321 321 321 322 322 323 322 321 323 322 321 322 320 321 320 321
347 345 346 346 347 348 348 348 348 348 347 346 348 349 352 353 355 355 354 355 354 350 347 346 345 344 343 344 343 343 342 339 333 331 328 325 321 315 299 296 304 306 301 297 296 296 308 326 338 331 317 307 309 304 303 302 301 300 300 301 303 304 306 308 308 318 324 324 323 323 324 324 324 322 321 320 325 324 323 323 323 324 323 321 319
Wind_Speed
16 18 17 18 18 15 13 12 13 13 12 13 13 14 13 11 10 11 8 8 9 9 8 8 8 7 7 8 7 7 6 5 5 5 4 4 4 6 6 5 5 6 5 5 4 4 3 1 4 5 3 3 3 4 4 4 2 2 1 2 2 1 2 1 2 2 2 3 3 2 3 1 2 2 4 4 3 1 4 3 3 5 5 4 3
18 16 17 18 17 18 16 12 15 15 13 14 14 14 13 13 12 11 9 8 9 10 8 8 7 7 7 7 7 7 6 6 5 4 4 4 7 6 5 5 5 5 6 6 4 2 1 2 4 4 3 4 4 1 3 2 3 2 1 1 2 2 1 2 5 2 1 1 3 1 2 1 2 2 3 6 5 3 4 4 7 7 5 5 5
15 18 19 17 20 20 15 13 14 16 16 15 13 13 13 13 11 10 11 9 8 11 9 8 7 7 7 6 7 5 6 6 6 4 4 3 5 8 6 5 4 3 2 3 4 5 5 5 5 5 6 4 2 2 2 3 2 1 0 1 3 1 2 1 3 2 2 3 2 1 1 2 2 4 5 1 3 3 2 7 5 7 5 4 5
15 16 20 19 19 17 15 14 14 14 13 14 15 15 13 12 12 11 11 11 9 10 10 9 9 8 7 6 7 6 5 5 5 3 4 5 5 8 5 5 4 5 4 7 5 5 4 5 5 3 2 4 1 2 2 2 2 2 1 2 1 2 3 1 2 3 2 2 2 1 1 3 2 2 2 2 4 3 5 7 4 4 5 3 3
14 17 18 19 18 19 16 15 16 15 15 15 16 16 13 15 13 13 11 12 10 9 11 9 8 8 7 6 5 6 4 4 6 6 6 5 6 7 6 7 6 6 8 7 5 5 4 4 5 4 4 3 3 2 1 2 3 3 3 1 2 1 5 1 1 2 3 2 2 2 2 2 3 3 2 2 3 1 5 9 3 3 6 2 2
15 16 16 19 19 17 16 17 17 16 15 15 16 16 14 13 13 13 11 11 11 11 11 9 9 8 8 7 7 5 5 5 6 6 6 6 6 7 8 8 8 7 5 5 4 4 5 4 5 5 4 4 3 2 2 0 1 1 5 1 3 1 1 3 2 2 2 2 1 2 2 1 3 4 1 2 3 2 6 1 6 7 6 3 2
18 17 16 20 19 19 18 17 19 18 16 15 15 15 15 14 14 14 12 11 11 11 12 10 9 9 9 8 7 7 6 5 4 5 5 4 4 6 8 9 7 6 6 5 5 6 4 4 4 5 6 5 3 3 2 2 4 1 5 3 4 4 2 3 3 1 3 1 0 1 3 1 2 3 3 3 1 4 4 4 1 4 4 7 4
16 18 17 17 19 20 20 19 18 18 17 16 16 14 16 15 15 14 12 11 11 11 13 11 10 10 9 9 8 7 7 6 7 6 5 5 6 7 7 7 7 5 6 6 5 6 5 5 4 3 4 5 6 5 3 3 3 2 3 7 4 2 2 2 4 3 2 1 1 1 3 1 0 2 3 1 1 2 3 5 4 7 6 4 3
17 17 19 17 18 21 19 18 20 19 17 16 15 14 15 15 15 14 13 12 12 13 13 13 11 10 10 9 8 7 7 6 6 6 5 6 4 4 6 7 7 5 5 7 6 6 6 5 5 3 3 3 6 4 4 4 5 4 4 4 3 3 0 2 1 3 3 2 2 2 3 1 1 2 3 0 1 2 3 4 2 1 5 5 2
15 18 17 17 16 20 20 19 20 19 16 15 15 14 14 14 15 16 14 12 12 13 13 14 13 10 10 10 10 8 7 6 6 7 7 6 5 4 5 8 7 5 5 7 6 6 6 6 5 5 5 6 5 4 4 3 4 4 5 4 3 3 2 2 2 2 1 3 1 3 1 2 2 2 1 2 2 1 1 3 4 4 3 0 3
14 15 16 16 16 15 18 20 18 18 15 16 16 15 15 15 16 17 16 12 13 14 14 14 13 11 10 11 11 10 9 8 7 7 7 7 6 5 6 6 7 6 5 6 7 6 6 6 7 6 6 3 4 1 4 3 7 4 4 4 4 3 4 2 2 2 1 1 1 1 2 2 3 2 0 1 2 1 1 4 6 6 3 4 1
12 13 15 16 15 14 16 18 18 18 17 16 17 16 15 15 16 17 16 15 13 14 14 14 13 12 11 11 11 10 10 8 8 6 8 7 7 6 6 6 6 7 7 7 7 9 6 5 5 6 6 5 4 2 1 2 2 6 4 4 3 2 4 2 2 3 3 3 2 3 4 5 3 2 2 4 1 2 2 1 4 3 3 2 2
11 8 7 9 16 16 16 16 16 17 17 17 18 19 16 16 17 18 17 16 14 14 15 14 14 13 12 11 11 9 10 9 8 7 7 7 7 6 8 7 6 7 5 8 7 8 7 6 6 3 5 5 5 3 2 4 1 4 4 6 4 4 2 4 2 1 3 3 2 1 3 2 1 3 1 2 4 3 2 1 1 3 4 4 1
14 13 14 12 14 17 15 15 17 17 19 18 17 17 15 15 18 18 18 17 15 14 15 15 15 13 12 11 10 10 9 9 8 8 7 7 7 7 8 8 7 7 7 6 7 7 8 7 5 3 5 4 4 4 4 1 3 0 5 5 5 4 4 4 4 4 2 1 1 3 4 2 3 4 3 2 1 1 3 1 2 2 2 4 3
12 13 16 16 14 18 18 18 17 18 20 21 17 16 15 15 17 18 18 17 16 16 15 16 13 13 12 11 11 9 9 9 8 8 8 8 8 8 7 8 8 7 7 6 6 7 8 8 6 5 5 5 4 5 3 4 2 2 2 4 2 6 3 2 4 3 3 4 1 2 3 3 2 2 2 1 1 2 2 2 2 1 2 3 4
18 17 18 18 15 16 17 17 15 16 19 19 18 16 16 16 17 19 19 19 18 17 15 15 14 12 13 13 12 11 9 9 8 8 7 9 9 8 8 8 8 7 6 8 6 8 8 8 7 6 6 6 5 4 5 4 4 4 3 3 3 4 5 4 2 3 3 2 3 3 3 2 2 2 3 3 2 4 4 1 1 1 0 3 3
16 15 15 17 15 16 18 18 18 18 19 20 18 17 17 17 18 19 18 18 18 18 16 15 14 14 14 13 12 11 12 12 10 11 11 9 9 9 8 7 8 8 8 9 8 7 9 9 8 8 6 7 6 6 6 6 6 6 5 5 4 4 4 4 3 3 3 5 5 5 3 3 2 1 1 1 2 3 2 1 1 1 1 2 2
15 13 13 17 18 17 20 20 21 21 21 20 18 17 17 17 18 20 19 20 19 18 17 16 15 15 14 14 14 12 12 12 11 11 10 9 9 9 8 8 8 9 9 8 8 8 7 9 8 7 7 8 8 7 7 7 7 5 6 6 5 4 2 4 4 3 3 3 2 0 2 2 2 2 4 5 3 4 4 4 4 4 4 4 3
14 15 12 14 16 16 17 21 23 20 18 19 19 18 16 16 18 21 21 21 20 18 17 14 15 13 12 14 14 13 12 12 11 11 10 10 11 10 11 10 10 8 9 8 9 9 8 8 8 8 7 9 8 8 7 6 6 6 6 6 6 5 4 4 4 5 3 2 2 1 1 1 1 2 2 1 1 2 2 4 4 4 5 5 4
15 14 14 15 18 20 20 20 21 20 18 20 22 21 24 21 19 19 20 18 19 19 17 16 16 14 13 13 13 13 12 12 11 11 11 11 12 12 12 12 11 9 9 9 9 10 10 10 9 10 9 9 9 8 8 7 6 7 6 7 7 6 6 5 4 5 4 5 6 4 3 3 2 1 2 2 1 1 2 4 3 4 2 2 2
15 13 14 16 17 19 18 17 18 17 17 19 21 23 23 21 21 22 21 22 23 21 18 16 15 14 15 15 15 14 15 13 13 12 12 12 12 11 12 11 10 10 10 10 11 10 10 10 11 10 10 10 10 9 9 7 7 7 5 5 6 7 7 7 6 5 5 4 4 5 4 4 4 4 4 3 2 2 3 5 5 4 4 4 4
17 15 15 15 15 16 17 14 13 15 19 22 21 22 23 23 22 22 22 22 23 21 17 16 15 15 16 16 17 15 14 13 14 13 13 13 13 11 11 10 12 12 11 12 12 11 11 12 11 11 10 11 11 10 11 9 8 8 7 6 7 8 9 9 9 8 6 5 3 4 4 3 3 3 4 3 3 4 4 5 3 4 4 3 3
19 18 17 15 12 11 12 13 13 15 16 20 20 22 22 23 23 22 22 23 23 21 18 15 15 15 17 16 16 15 15 15 16 14 17 16 14 12 12 13 12 12 12 12 12 12 12 12 11 11 11 12 12 11 10 10 10 9 9 8 8 7 8 9 9 9 8 6 6 5 6 5 4 4 5 4 4 3 2 1 2 1 1 1 2
19 18 15 13 15 15 13 14 14 15 16 19 20 20 21 21 22 22 24 24 22 20 19 17 16 17 17 16 16 15 19 19 19 17 19 18 16 15 13 13 13 11 12 12 13 12 12 13 13 12 12 11 12 11 10 10 11 11 10 10 9 8 6 5 6 7 7 7 7 7 6 6 5 5 4 4 4 3 3 2 2 2 3 3 2
16 17 15 14 16 17 16 17 18 20 20 17 18 20 21 21 22 22 22 23 21 19 19 19 20 21 20 17 19 18 18 19 19 18 20 19 18 17 14 15 14 13 13 12 12 12 12 13 13 14 13 12 13 12 12 11 10 10 11 10 9 7 7 7 6 6 7 7 7 7 7 6 4 3 2 3 4 4 4 4 3 3 3 3 3
14 16 15 15 15 15 15 14 13 17 18 17 18 20 21 20 22 21 21 21 21 19 20 20 20 20 18 19 19 17 19 21 20 19 20 19 18 16 15 15 15 14 14 14 14 13 13 14 14 14 14 13 12 13 12 11 11 11 11 10 9 8 7 8 8 8 7 7 7 8 7 6 5 6 5 4 3 4 3 3 4 4 3 3 3
14 14 13 10 12 15 16 15 13 16 17 16 18 20 20 17 18 21 19 19 18 18 17 19 20 21 17 19 18 18 17 19 17 16 16 16 17 18 18 17 15 15 15 15 14 15 13 14 14 13 14 14 13 13 12 11 11 10 11 10 10 9 8 7 7 8 8 7 7 6 6 6 5 5 4 4 4 3 3 4 4 3 1 0 1
8 9 8 9 11 15 15 16 16 17 18 16 18 19 19 16 18 18 19 19 17 16 16 17 17 17 16 18 17 17 17 17 15 14 14 15 16 15 14 13 13 15 16 16 15 15 13 13 14 13 13 12 12 12 12 12 11 11 11 11 10 10 10 8 8 9 9 9 8 8 9 7 7 6 6 5 5 5 5 5 4 2 2 3 4
12 12 10 11 9 11 15 16 16 17 19 19 18 18 16 15 15 16 17 19 16 16 16 17 17 16 16 16 16 15 15 15 14 14 14 14 14 13 12 12 13 13 12 13 14 14 13 13 13 13 13 12 12 12 11 12 12 12 10 11 11 10 10 9 9 9 9 9 8 9 9 9 10 12 13 10 8 7 5 5 3 3 2 2 3
11 9 10 8 8 8 10 12 11 15 16 17 16 16 17 17 16 17 15 15 15 16 15 16 17 16 15 15 15 13 14 14 14 15 15 14 13 13 12 12 13 13 11 11 11 12 13 14 14 13 12 12 11 10 12 18 15 11 11 10 10 10 9 9 10 9 9 9 9 9 8 11 6 10 13 14 11 8 5 3 3 2 2 3 3
17 15 13 11 11 10 11 12 12 13 15 16 14 15 16 20 19 20 16 15 14 15 16 16 16 16 15 15 14 14 13 13 14 14 14 14 13 12 11 10 11 12 12 10 10 13 13 12 13 13 14 12 11 10 16 16 17 17 12 10 10 10 10 10 9 9 8 9 9 8 7 9 9 8 7 9 9 7 5 4 5 7 6 4 4
15 13 12 13 13 13 13 14 14 14 14 13 12 13 15 18 17 18 19 17 14 16 17 16 14 15 15 16 15 14 13 13 13 13 13 12 11 10 9 8 8 10 10 10 10 11 12 12 11 12 14 12 12 12 17 18 17 16 13 9 9 9 9 9 9 8 8 7 7 7 7 5 7 8 7 7 8 9 9 8 7 7 8 9 8
13 14 16 17 18 16 15 16 16 15 14 15 13 13 14 15 15 15 15 17 16 17 15 15 14 16 16 15 14 14 13 12 12 12 11 10 10 9 9 8 8 8 9 9 9 10 11 11 11 12 13 13 11 14 18 17 16 15 14 11 8 8 9 9 9 9 9 8 6 7 5 5 5 10 7 5 5 6 6 8 8 9 9 9 10
11 18 15 14 11 12 14 16 15 17 20 19 17 16 13 13 12 10 14 15 13 14 15 16 14 15 15 14 13 13 12 11 10 10 9 9 9 9 9 7 6 6 8 8 9 10 10 11 11 12 12 11 10 13 18 17 16 17 16 11 6 8 8 9 9 9 9 8 8 6 6 6 6 6 6 7 6 5 4 5 5 5 5 7 9
9 11 18 16 15 14 15 15 17 19 15 14 13 13 12 13 12 13 12 12 11 12 15 14 14 13 13 13 13 12 11 11 10 10 9 9 9 8 8 7 7 8 8 8 8 9 9 10 11 10 10 10 8 17 18 19 17 16 15 11 8 8 6 6 7 8 9 9 9 8 7 7 7 7 6 6 5 5 5 4 5 5 5 5 6
7 9 9 16 17 17 18 17 15 14 15 17 17 17 17 18 18 14 12 11 9 11 14 14 13 13 13 13 13 12 12 11 11 10 10 10 9 9 9 8 7 7 6 7 7 8 9 10 9 10 10 11 8 19 17 17 17 16 18 9 9 10 8 6 5 5 6 5 8 7 7 7 6 6 7 10 8 5 5 5 7 6 6 6 7
12 12 10 17 15 16 16 13 14 17 17 18 17 18 17 17 17 15 12 12 10 12 14 14 13 13 13 14 14 14 13 12 11 11 10 9 9 9 9 8 8 8 8 8 8 9 6 8 9 9 9 8 7 15 18 19 19 19 13 9 11 10 9 8 8 6 6 5 9 8 8 6 5 3 5 11 10 7 5 6 7 7 6 6 5
15 15 11 15 16 16 16 18 18 18 18 16 17 17 15 14 15 14 13 13 11 13 13 13 14 14 13 13 13 13 13 12 11 11 11 9 8 7 7 7 8 9 11 11 8 7 6 7 8 8 9 9 8 14 20 20 18 19 16 11 9 9 9 10 9 9 8 6 9 15 9 7 8 7 9 12 11 9 6 6 6 7 6 6 5
20 19 15 16 18 20 17 18 19 20 17 16 17 18 16 15 14 17 16 14 13 13 13 14 14 14 13 12 12 12 12 13 11 10 10 11 10 8 7 7 8 8 7 5 6 6 6 6 9 9 9 10 9 12 18 17 18 18 15 10 9 9 10 11 10 10 9 5 3 6 11 7 5 2 9 12 9 7 5 5 5 4 4 4 3
22 22 21 10 16 15 18 20 19 17 18 16 18 16 16 15 15 17 16 14 15 14 14 13 13 13 12 12 11 12 12 12 11 10 9 8 8 9 9 8 6 5 3 3 5 6 6 7 6 7 8 8 9 5 13 16 18 17 18 10 8 9 9 10 10 7 2 3 1 3 6 9 5 11 10 8 9 8 5 4 2 3 3 4 2
19 22 20 11 15 18 19 21 16 16 16 17 16 15 14 14 14 14 15 15 15 15 15 14 13 14 13 12 10 11 11 11 11 10 10 10 10 9 8 7 7 6 3 2 3 4 6 4 6 6 7 9 8 6 10 16 16 17 17 13 7 9 7 6 3 3 4 4 2 4 5 9 15 11 8 9 8 7 1 1 1 2 1 1 2
5 3 11 14 15 13 15 16 12 14 14 14 14 14 13 13 14 15 14 13 14 15 14 14 14 13 14 14 13 12 11 11 11 11 10 10 9 9 9 9 8 6 6 5 4 3 2 2 2 2 0 2 4 8 9 11 16 16 17 16 7 3 6 4 4 1 4 3 2 2 7 11 13 12 10 9 9 7 3 2 2 6 3 2 2
8 6 9 9 9 11 14 13 14 16 13 13 14 15 14 13 13 13 13 13 14 14 15 15 14 14 13 13 13 13 11 10 10 10 10 11 9 8 7 7 6 8 8 7 5 3 3 1 2 3 4 3 3 3 12 10 12 15 15 14 8 8 9 6 6 4 6 7 9 11 9 9 12 12 11 9 8 7 4 3 8 5 4 3 4
4 8 9 11 9 8 8 9 12 10 10 11 13 15 13 13 13 12 13 14 14 14 15 15 14 13 13 12 12 12 10 9 11 9 9 9 9 7 8 7 8 7 7 6 5 4 3 4 6 5 4 5 4 3 9 14 12 13 12 13 11 10 10 6 7 7 7 8 7 6 5 11 11 11 10 9 8 6 3 7 6 6 6 5 4
3 5 4 5 8 8 7 7 7 8 7 10 13 14 14 13 11 12 14 14 14 14 14 14 13 12 11 11 10 9 9 8 8 8 8 9 8 9 9 8 8 7 6 6 5 5 5 6 7 6 5 5 5 4 4 6 12 13 14 14 12 12 12 12 9 9 6 2 5 11 13 11 11 10 10 7 6 7 7 9 8 8 8 3 4
11 6 3 6 7 6 8 10 11 12 11 10 11 14 15 12 12 13 14 14 14 14 13 14 13 12 12 12 12 11 9 9 9 6 7 7 7 8 8 8 7 7 6 7 6 6 7 7 6 6 5 7 6 5 5 6 6 11 13 14 13 8 6 5 8 8 11 11 12 13 13 12 10 9 6 5 6 7 10 12 11 8 4 4 4
3 4 3 3 8 10 11 13 14 14 15 14 16 15 14 11 12 14 14 13 14 14 14 13 13 13 11 11 11 9 9 9 7 7 6 6 7 7 8 7 6 6 6 6 6 7 7 7 6 5 6 7 6 5 5 5 6 6 4 4 5 6 6 7 6 5 7 7 9 8 7 8 6 12 10 5 5 8 6 4 4 5 5 6 6
8 9 11 6 7 10 12 11 10 11 13 15 14 14 14 13 13 14 14 13 13 13 13 13 14 12 10 10 9 11 11 8 7 5 6 8 8 8 7 6 6 6 7 6 6 7 7 6 6 5 6 7 6 6 6 7 6 6 6 6 6 5 5 5 5 5 5 6 5 5 6 5 4 4 3 4 5 5 6 6 6 6 7 8 7
13 13 11 7 7 10 9 12 10 10 12 13 13 14 15 14 12 12 12 13 13 13 13 14 13 12 11 9 10 10 9 9 9 9 8 8 6 3 5 7 7 5 2 3 7 6 6 6 6 6 7 7 8 8 8 8 8 8 8 9 8 8 6 5 5 9 7 6 5 5 5 5 5 6 6 7 7 7 7 7 7 6 5 3 5
12 12 12 10 10 10 11 11 9 9 11 12 13 12 12 13 13 12 12 13 13 13 14 13 12 12 12 11 10 11 11 10 9 7 7 8 14 15 10 6 5 6 6 5 5 3 3 4 5 4 2 7 8 6 13 14 13 12 9 9 6 8 7 7 8 11 7 6 6 6 6 6 7 8 9 6 5 5 6 7 6 7 5 4 3
11 14 14 12 12 12 11 11 9 9 10 11 11 12 11 12 11 11 12 12 11 10 10 11 11 10 10 9 10 10 10 9 9 8 7 8 8 10 15 14 10 4 7 11 10 7 8 8 7 5 5 10 14 15 16 14 14 13 12 11 11 12 12 10 10 7 6 7 6 7 8 9 8 6 4 4 2 2 2 2 2 1 3 4 3
Wind_Direction
186 191 200 189 193 182 188 180 187 182 183 174 170 171 175 184 177 176 190 174 162 169 177 186 187 183 193 197 197 196 197 206 208 221 214 192 128 125 140 147 166 171 177 194 227 235 257 186 112 93 147 170 177 208 222 113 176 93 129 187 254 221 268 89 249 267 12 331 323 270 116 207 224 218 246 269 248 158 124 89 83 56 33 26 100
186 189 196 197 192 189 186 182 187 186 183 176 177 173 175 183 184 175 184 185 169 172 178 187 190 189 188 193 198 195 185 199 207 203 225 181 136 145 144 160 171 182 182 180 186 151 321 101 110 137 152 187 206 117 52 72 59 262 73 2 219 284 319 308 62 26 341 250 284 316 141 262 272 283 276 238 279 78 90 92 81 69 43 7 355
191 187 192 199 193 193 183 185 187 192 184 184 175 173 175 185 185 176 180 187 177 171 180 187 187 191 187 192 200 195 190 188 201 200 207 209 169 143 149 169 166 170 209 178 170 147 211 162 150 174 186 158 79 137 174 129 203 51 103 28 329 197 236 276 88 358 4 300 100 59 282 203 342 321 293 272 211 130 155 58 62 86 68 26 354
192 186 190 197 194 194 184 186 184 189 182 184 179 180 178 185 186 179 176 184 186 174 179 184 190 187 193 194 188 214 176 179 180 195 188 206 192 133 145 149 149 176 200 232 180 169 160 144 142 163 114 113 114 113 160 173 120 163 236 221 142 316 252 239 153 123 63 355 350 40 291 265 149 291 284 305 346 35 68 104 100 109 84 65 13
191 195 188 192 195 194 185 185 185 189 186 186 183 184 185 184 185 180 175 180 187 181 177 179 181 187 196 201 194 196 200 177 172 186 192 194 185 141 159 158 184 189 188 204 157 153 156 148 145 160 130 137 160 159 107 206 180 181 166 74 275 282 350 210 168 144 117 74 23 339 355 314 13 321 230 331 311 15 232 132 140 102 103 109 98
190 201 194 189 195 191 185 182 190 191 189 187 186 185 184 182 182 180 178 178 183 184 181 177 180 186 182 187 193 186 183 183 192 187 186 187 204 174 166 177 186 192 170 169 158 147 157 166 146 151 143 149 113 226 155 91 233 236 128 231 223 128 302 333 67 100 88 66 155 154 129 159 305 295 347 332 323 19 336 92 138 147 134 134 157
191 200 200 192 191 194 189 183 192 194 191 185 185 184 183 180 183 180 181 178 179 181 181 181 182 185 186 187 188 187 185 185 182 196 189 177 187 202 172 177 169 178 169 177 159 149 166 155 162 153 158 152 158 116 236 211 175 235 134 177 50 46 29 337 330 88 41 104 234 175 145 256 81 332 39 323 344 332 339 347 78 59 126 145 185
193 194 201 196 188 195 196 187 190 195 190 188 187 184 181 179 181 182 181 180 179 177 182 184 184 182 184 188 188 188 191 184 183 191 181 189 188 210 156 160 151 173 159 159 162 152 162 160 163 175 147 169 163 162 205 206 69 119 88 72 77 42 354 36 6 13 36 237 147 166 155 150 308 302 64 52 284 314 298 305 115 163 203 154 123
196 195 201 201 190 193 193 189 191 194 192 189 186 186 179 178 179 181 183 181 179 179 180 184 187 181 184 186 184 189 188 185 177 180 185 192 187 167 127 131 139 162 166 157 160 154 162 159 159 174 154 224 155 161 167 203 139 110 101 115 131 152 212 9 24 26 348 106 74 360 3 330 230 217 144 225 107 34 341 327 305 352 25 57 75
200 200 196 201 197 191 196 194 189 195 192 186 186 184 179 178 178 180 184 182 180 181 181 182 185 181 184 185 187 181 183 184 182 173 184 164 175 148 122 129 143 166 165 153 162 158 168 158 151 180 169 211 142 196 189 156 114 129 143 162 159 162 96 176 195 175 56 343 126 137 209 345 351 358 189 198 137 105 253 278 282 29 41 128 219
199 200 193 192 200 193 191 198 192 190 193 185 186 186 182 180 179 181 184 183 182 183 181 181 183 184 186 186 188 181 180 181 187 176 168 148 171 149 140 143 148 158 180 150 160 168 165 164 172 173 204 162 130 276 167 148 148 161 162 161 155 156 174 175 271 89 126 140 329 97 216 198 238 143 134 13 54 31 344 334 350 13 338 355 360
198 197 199 185 183 193 191 197 194 187 191 189 190 184 185 181 179 180 183 184 183 183 182 182 182 185 187 186 186 184 178 182 185 181 159 157 166 154 147 152 167 159 193 151 169 179 159 179 184 177 198 128 138 121 154 193 177 155 162 130 137 158 169 134 202 201 176 177 261 190 227 233 166 165 151 155 128 115 93 352 328 330 339 305 332
206 194 202 184 178 190 188 195 190 186 190 190 191 191 185 180 179 180 183 182 184 182 183 184 182 184 185 185 185 184 182 180 178 181 161 162 161 163 159 162 176 167 185 155 181 173 153 162 210 194 129 139 144 161 246 175 337 149 151 141 166 167 189 162 181 195 209 232 184 286 227 236 76 204 127 56 65 93 98 92 302 350 310 309 336
201 194 190 209 188 187 189 193 189 188 188 189 189 190 186 181 179 182 182 181 182 183 183 185 184 183 184 183 182 181 184 178 178 175 170 162 163 174 168 168 175 174 175 179 172 180 155 172 186 171 133 144 150 151 177 225 133 3 150 153 176 156 171 177 195 222 221 151 176 223 294 36 352 10 32 69 192 148 127 143 242 257 314 306 292
203 198 192 199 187 183 193 200 191 187 187 190 190 189 183 182 179 181 181 182 182 184 184 185 183 184 184 184 181 180 182 181 174 177 169 166 170 180 173 172 172 178 175 183 182 163 157 169 168 174 150 150 167 166 173 150 150 161 110 160 184 150 173 188 181 228 189 204 211 44 4 295 244 226 178 174 89 77 78 91 65 338 307 319 317
197 204 194 192 188 185 189 195 186 184 185 191 191 186 184 183 180 182 183 181 183 184 186 184 184 183 183 184 184 180 180 178 178 174 174 170 170 178 180 170 171 172 174 175 192 164 165 164 163 168 162 160 165 173 171 168 164 175 181 161 191 160 173 178 244 217 205 187 210 193 161 257 26 348 14 354 19 70 90 81 130 155 256 293 311
194 201 192 189 191 191 196 199 192 185 185 191 190 187 184 180 180 181 184 184 185 185 184 183 182 183 184 183 184 182 180 182 182 180 180 172 167 176 178 178 171 171 183 173 187 172 167 167 165 170 172 163 170 174 184 179 176 175 177 176 178 204 161 174 181 220 240 218 188 203 199 193 168 125 191 217 206 128 120 113 139 156 129 229 278
191 198 188 184 191 196 196 197 197 192 189 188 188 186 184 183 181 180 183 186 187 185 185 182 181 184 184 183 184 185 183 185 186 180 179 173 173 175 177 184 186 178 180 179 177 183 168 166 159 168 169 174 177 183 187 190 171 177 178 181 184 197 183 160 178 231 251 253 242 217 178 148 159 184 204 223 188 153 170 179 182 176 169 208 221
186 191 184 180 190 199 196 198 199 194 186 186 185 184 185 183 184 185 185 187 185 187 188 184 183 183 185 183 184 184 185 188 186 177 176 177 184 180 184 185 190 182 181 185 173 175 172 169 165 169 170 175 181 183 187 191 171 182 183 179 185 188 196 164 174 183 217 257 296 251 150 192 117 271 287 317 214 138 178 193 197 172 180 197 225
181 187 186 185 194 204 202 199 201 196 186 187 189 189 191 188 184 186 186 185 186 188 185 185 182 184 183 182 183 185 185 188 185 176 178 182 188 183 186 187 188 184 182 179 176 174 174 175 173 178 177 179 182 185 183 186 186 189 189 188 185 194 183 180 189 184 199 199 199 204 216 218 213 205 236 226 137 202 216 224 209 167 165 216 215
176 182 186 190 197 200 199 192 202 202 191 191 192 193 193 191 189 187 185 186 189 190 187 184 181 183 181 182 183 184 188 187 186 180 178 186 191 185 185 192 180 187 181 181 178 177 175 179 181 182 182 180 182 187 179 183 189 191 193 195 190 197 191 184 189 194 202 206 190 189 197 198 193 201 200 195 226 237 226 215 203 172 188 201 199
172 176 184 188 190 188 191 186 182 200 202 196 194 194 194 194 190 188 188 189 189 190 188 182 182 182 184 183 185 185 187 188 188 183 185 186 191 186 184 190 185 185 181 184 179 179 178 177 182 182 184 179 183 186 178 180 182 186 198 196 208 201 195 193 188 189 191 196 212 205 204 207 193 215 215 214 202 208 230 240 180 174 183 200 178
174 180 177 172 169 176 184 178 183 193 207 197 195 196 194 193 191 190 189 190 190 190 185 178 181 183 184 181 182 185 186 188 189 187 192 192 190 188 187 194 189 185 182 184 181 184 180 178 181 182 185 181 183 186 182 178 181 185 195 202 210 216 197 191 185 182 185 185 198 208 210 202 194 203 210 210 206 210 241 319 342 306 256 211 226
178 178 171 174 171 172 185 187 192 198 208 190 193 196 194 193 193 191 191 189 190 189 185 178 181 185 183 180 182 183 189 191 193 192 193 195 193 192 191 193 194 188 184 183 181 184 179 179 182 183 187 183 182 186 187 183 180 183 193 199 210 216 218 209 197 187 187 189 198 204 206 206 195 202 199 194 190 190 194 211 235 227 216 222 217
163 168 175 180 174 179 190 192 192 193 199 183 186 195 196 195 194 192 191 189 190 188 184 182 184 186 185 182 183 185 190 192 193 192 194 195 195 194 192 194 194 196 186 182 181 184 181 182 185 184 186 185 183 186 187 185 183 184 189 199 206 210 206 206 206 201 197 199 204 207 203 199 194 200 200 210 189 198 201 202 213 222 214 215 224
165 170 172 181 179 176 183 190 189 186 184 180 184 193 199 198 197 193 191 189 191 189 185 183 184 186 183 183 185 187 190 195 194 194 193 195 196 194 191 192 194 195 184 185 181 185 184 185 188 186 186 185 182 185 186 187 187 185 189 197 204 208 199 195 201 205 207 201 201 204 203 193 193 193 194 196 196 206 200 201 215 208 208 219 225
165 170 175 175 166 173 178 181 184 183 182 182 183 191 198 197 196 196 191 189 187 190 183 183 184 187 183 186 186 188 190 195 194 193 193 194 197 197 195 193 192 193 190 190 186 186 185 185 188 187 186 186 182 184 185 188 190 186 190 194 200 205 203 200 203 209 210 206 208 209 208 203 200 198 205 204 185 194 201 222 216 214 193 93 280
167 162 166 174 169 180 177 182 180 182 185 184 184 191 196 197 195 197 192 189 188 187 184 180 182 186 184 185 189 190 190 194 193 190 192 196 198 198 194 187 188 193 194 192 188 186 185 186 187 189 187 183 183 183 184 188 189 188 187 194 197 200 203 203 207 210 211 209 203 208 213 203 202 200 200 199 191 197 201 214 205 163 161 217 236
167 162 169 176 175 171 179 182 185 180 183 184 186 192 196 198 195 194 196 192 184 184 183 181 179 183 184 186 190 192 192 191 189 187 193 196 197 199 194 182 184 192 196 193 189 185 182 185 188 189 186 182 187 187 186 186 188 188 189 192 196 199 198 202 207 210 211 212 206 206 209 208 196 193 191 197 194 193 201 204 186 176 181 213 260
159 170 176 179 177 163 168 175 177 182 182 188 186 190 194 196 193 191 197 191 180 181 182 182 180 181 181 184 189 190 192 191 188 189 194 196 196 195 194 186 183 188 191 193 182 178 183 184 187 188 183 185 190 193 189 186 185 185 187 190 194 199 200 202 205 209 211 210 215 216 212 216 182 175 190 194 197 166 174 178 167 174 199 219 235
171 177 181 178 179 170 166 168 180 182 186 189 191 190 192 200 198 195 195 193 178 177 180 183 181 179 177 181 184 190 189 190 191 193 194 196 197 195 193 186 183 186 190 192 179 175 183 186 187 184 183 190 192 194 184 182 185 186 183 189 191 195 200 204 204 204 212 207 208 210 214 199 167 148 145 139 134 144 162 181 205 216 217 221 242
171 172 181 181 181 177 168 174 176 184 185 189 190 190 190 201 200 198 194 195 182 176 180 182 176 174 175 180 184 185 186 189 189 192 193 195 195 194 194 191 185 182 187 186 184 176 176 178 185 186 188 191 195 185 177 183 183 183 186 189 198 198 199 204 207 205 206 214 213 209 209 175 171 163 166 153 157 176 186 198 216 238 239 229 222
173 168 181 186 187 178 178 176 181 182 184 188 189 191 197 201 205 198 189 196 188 179 177 178 173 173 176 179 179 181 182 183 186 187 187 187 188 191 191 190 195 182 174 184 179 171 177 178 183 189 194 191 194 173 176 177 177 178 187 196 199 208 204 203 207 207 204 202 202 217 209 153 173 162 159 162 169 180 188 209 230 239 245 240 234
192 178 180 184 183 183 177 177 179 185 190 191 188 193 199 205 211 198 194 194 191 173 175 175 170 172 172 172 172 174 176 176 174 173 173 175 179 182 184 171 158 154 170 175 180 176 177 184 185 190 194 192 196 162 171 172 177 187 191 199 215 208 210 209 205 206 209 204 195 173 159 168 156 162 176 176 179 181 193 212 207 203 222 239 235
227 169 181 175 183 178 178 177 183 188 187 186 188 190 188 197 208 203 197 192 191 167 170 170 168 167 164 164 165 164 167 163 163 164 166 169 174 170 173 165 165 168 174 174 177 182 179 187 189 187 192 189 180 160 170 177 182 186 191 200 220 222 227 222 208 205 204 203 178 173 173 168 167 172 180 180 181 194 189 204 208 216 223 234 243
217 219 186 177 175 179 179 182 181 176 180 186 190 192 195 198 205 202 194 191 179 160 161 162 162 161 157 157 158 158 157 153 154 157 163 168 168 166 172 170 167 167 168 165 171 185 188 191 189 184 194 191 166 163 170 175 178 186 193 189 212 223 232 242 246 231 213 166 169 169 171 168 180 171 183 193 199 184 189 205 216 219 229 234 242
241 227 200 171 179 177 177 170 174 179 182 187 186 190 192 193 199 196 188 185 168 159 159 157 155 151 153 155 154 154 150 152 152 153 162 167 169 171 174 172 176 174 173 172 181 191 187 194 193 188 189 188 158 169 172 181 181 187 186 196 212 220 229 237 252 242 228 178 176 179 174 167 152 153 183 198 195 182 201 212 220 223 226 240 249
257 255 233 173 173 177 167 173 176 180 182 181 181 185 184 188 193 187 179 179 161 162 158 153 152 153 154 155 155 153 152 157 160 166 166 172 179 182 179 166 178 187 196 194 192 191 188 192 197 192 190 182 182 178 181 184 183 189 187 192 202 208 221 228 236 239 228 202 182 180 166 148 158 185 191 189 197 193 210 224 230 236 236 239 244
258 260 249 187 174 173 165 174 175 180 179 175 177 180 182 185 187 186 181 173 158 158 157 155 155 154 154 153 155 156 159 163 164 167 167 169 178 176 182 175 189 204 205 187 180 182 191 174 196 203 196 192 197 180 186 183 188 185 185 190 190 198 211 221 223 229 224 206 158 175 165 129 98 124 199 205 192 190 216 231 235 232 238 249 268
232 241 253 211 174 164 164 173 174 178 174 175 174 176 179 181 182 180 178 170 158 156 155 155 155 151 153 155 161 158 160 162 157 162 165 156 158 170 176 182 187 185 183 181 161 179 182 189 187 204 197 200 211 145 186 185 184 182 185 184 191 199 211 218 220 219 63 315 195 97 71 93 197 219 197 182 186 196 219 228 229 225 227 240 28
230 226 232 197 173 165 167 173 173 173 172 174 173 172 175 177 174 175 177 170 155 149 151 153 149 155 153 152 154 158 160 156 155 158 161 157 164 164 157 162 174 179 156 116 171 187 177 174 187 193 210 192 208 168 183 181 178 182 188 192 192 203 209 205 105 46 230 192 180 173 160 181 213 206 190 182 182 188 177 264 173 243 263 70 316
274 129 167 158 165 153 160 166 159 170 169 170 166 164 166 168 169 171 168 159 148 146 148 146 149 153 155 159 159 156 160 156 156 160 162 152 155 154 157 159 172 161 135 124 101 84 97 149 152 193 75 150 177 163 164 185 178 180 188 194 200 126 78 55 51 133 133 134 206 198 230 210 194 187 180 166 158 156 151 206 99 106 114 20 335
84 92 87 119 125 147 161 163 163 173 173 160 154 153 158 162 164 158 154 149 146 145 143 142 145 148 151 152 152 154 157 158 159 163 156 148 148 151 145 146 133 116 121 119 119 117 116 42 291 217 176 185 223 170 156 173 191 187 189 186 106 102 124 142 166 206 181 172 202 221 213 162 164 164 155 153 148 142 157 144 128 139 157 209 247
14 114 149 131 134 153 162 167 168 165 159 151 141 149 152 157 153 148 143 142 143 139 136 136 139 142 145 146 145 151 154 154 156 152 141 134 141 138 127 118 112 117 118 118 119 118 135 213 227 212 189 193 157 98 160 168 172 184 184 176 145 151 168 187 178 204 213 212 210 204 136 143 141 139 138 144 148 174 157 135 151 174 196 213 234
122 108 103 132 130 155 166 144 121 132 126 128 137 141 141 140 137 132 131 134 133 131 130 132 133 134 133 135 139 143 140 142 141 141 129 131 135 125 119 118 122 123 121 130 148 170 198 214 218 193 182 144 133 122 114 160 168 163 171 173 169 171 192 195 209 224 208 206 87 105 115 123 129 128 128 132 167 209 185 177 181 197 207 229 212
339 339 88 119 157 175 131 107 96 94 92 102 120 123 120 116 118 121 125 125 126 126 127 128 128 129 134 139 145 141 133 128 134 132 124 121 120 122 122 124 125 128 139 157 169 189 203 211 207 202 168 153 140 126 129 141 168 170 182 186 180 181 182 97 63 73 77 88 99 107 111 116 120 132 143 188 200 194 205 204 208 200 213 227 229
100 266 237 172 170 150 128 119 113 109 106 105 106 107 109 113 117 122 122 123 123 122 121 123 127 131 132 134 131 126 126 122 103 97 106 112 111 117 123 126 133 147 164 173 185 199 202 204 202 194 148 143 145 141 152 163 171 174 168 141 120 96 107 125 110 107 101 99 120 127 143 157 167 186 203 202 191 173 178 193 201 201 218 223 226
48 36 356 32 64 108 118 113 107 115 123 123 113 110 114 123 126 123 121 117 116 117 118 119 121 121 123 123 121 118 120 117 93 109 134 136 125 121 132 142 161 176 175 177 194 208 208 202 190 164 154 159 154 158 176 178 180 168 156 146 157 152 164 177 147 136 134 129 130 129 143 171 165 187 217 203 201 190 205 192 201 209 211 220 224
55 61 62 36 83 91 104 109 108 107 113 114 122 125 127 124 120 119 118 114 110 111 114 118 118 119 114 111 119 127 111 87 81 72 50 30 30 57 99 70 33 27 8 197 204 194 200 210 192 155 163 169 176 180 191 183 170 167 165 158 172 183 177 168 156 142 145 145 132 159 179 186 189 200 210 213 201 198 210 204 205 215 218 201 193
48 67 78 68 59 75 82 80 84 99 104 108 107 111 116 117 118 115 113 111 115 118 120 120 123 123 126 129 137 133 111 110 101 96 92 77 65 53 35 74 86 47 49 27 46 195 225 205 168 126 152 191 193 184 139 150 143 140 133 131 147 161 171 159 161 160 176 166 191 190 198 201 203 204 212 227 239 200 195 195 193 202 202 221 241
74 73 64 63 64 67 73 80 92 102 108 110 110 108 105 104 105 110 113 115 119 119 121 123 127 133 132 136 139 125 122 118 118 118 110 112 95 56 47 44 49 43 38 50 52 41 46 89 120 128 44 59 101 112 124 128 128 126 126 129 140 152 166 173 166 158 211 201 195 207 210 212 214 247 271 256 208 199 249 246 245 185 190 211 221